Flag for Moldova Weather past 2 weeks in Chisinau, Moldova

Now
43 °F

Overcast.


Feels Like: 38 °F
Forecast: 40 / 55 °F
Wind: 8 mph from South

Location: Chisinau International Airport

Current Time: Mar 1, 2015 at 5:11:53 PM

Latest Report: Mar 1, 2015 at 4:30 PM


Visibility: N/A

Pressure: 30.04 "Hg

Humidity: 71%

Dew point: 34 °F

Location of ChisinauLocation

Historic Weather in Chisinau — Graph

°F

Chisinau temperature yesterday

Maximum temperature yesterday: 45 °F (at 1:00 PM)
Minimum temperature yesterday: 37 °F (at 5:30 AM)
Average temperature yesterday: 41 °F

Past Weeks' High & Low Weather Summary

 TemperatureHumidityPressure
High55 °F (Feb 27, 3:30 PM)93% (Feb 14, 7:30 PM)30.72 "Hg (Feb 14, 7:30 PM)
Low14 °F (Feb 17, 4:00 AM)25% (Feb 18, 4:30 PM)29.80 "Hg (Feb 24, 2:00 PM)
Average36 °F74%30.16 "Hg
* Reported Feb 14 4:00 PM — Mar 1 4:00 PM, Chisinau, Weather by CustomWeather, © 2015

Note: Actual official high and low records may vary slightly from our data, if they occured in-between our weather recording intervals... More about our weather records

Advertising

Chisinau weather history for previous 24 hours

 ConditionsComfort  
Time TempWeatherWind HumidityBarometerVisibility
4:00 PM
Sun, Mar 1
43 °FOvercast.7 mph71%30.07 "HgN/A
3:30 PM43 °FOvercast.6 mph66%30.07 "HgN/A
3:00 PM43 °FOvercast.6 mph71%30.07 "HgN/A
2:30 PM43 °FOvercast.5 mph71%30.09 "HgN/A
2:00 PM41 °FOvercast.6 mph76%30.09 "HgN/A
1:30 PM41 °FOvercast.3 mph70%30.09 "HgN/A
1:00 PM41 °FOvercast.5 mph70%30.09 "HgN/A
12:30 PM41 °FOvercast.No wind76%30.12 "HgN/A
12:00 PM41 °FOvercast.2 mph70%30.12 "HgN/A
11:30 AM41 °FOvercast.1 mph70%30.12 "HgN/A
11:00 AM39 °FOvercast.2 mph75%30.12 "HgN/A
10:30 AM39 °FOvercast.No wind75%30.12 "HgN/A
10:00 AM39 °FOvercast.3 mph75%30.12 "HgN/A
9:30 AM39 °FOvercast.2 mph75%30.12 "HgN/A
9:00 AM39 °FOvercast.6 mph75%30.12 "HgN/A
8:30 AM39 °FOvercast.3 mph75%30.12 "HgN/A
8:00 AM39 °FOvercast.2 mph75%30.12 "HgN/A
7:30 AM39 °FOvercast.6 mph75%30.12 "HgN/A
7:00 AM37 °FOvercast.5 mph81%30.12 "HgN/A
6:30 AM39 °FOvercast.6 mph75%30.12 "HgN/A
6:00 AM37 °FOvercast.5 mph81%30.09 "HgN/A
5:30 AM37 °FLow clouds.7 mph81%30.09 "HgN/A
5:00 AM37 °FLow clouds.7 mph81%30.09 "HgN/A
4:30 AM37 °FLow clouds.6 mph81%30.09 "HgN/A
4:00 AM37 °FLow clouds.7 mph81%30.09 "Hg6 mi
3:30 AM37 °FLow clouds.6 mph81%30.09 "Hg5 mi
3:00 AM39 °FLow clouds.6 mph81%30.12 "Hg6 mi
2:30 AM39 °FLow clouds.6 mph81%30.12 "Hg5 mi
2:00 AM39 °FLow clouds.7 mph81%30.12 "Hg4 mi
1:30 AM39 °FLow clouds.7 mph81%30.12 "Hg4 mi
1:00 AM39 °FLow clouds.6 mph81%30.09 "Hg4 mi
12:30 AM39 °FLow clouds.7 mph81%30.09 "Hg4 mi
12:00 AM39 °FLow clouds.9 mph81%30.09 "Hg4 mi
11:30 PM
Sat, Feb 28
39 °FLow clouds.9 mph81%30.09 "Hg4 mi
11:00 PM39 °FLow clouds.8 mph81%30.12 "Hg4 mi
10:30 PM39 °FLow clouds.9 mph87%30.12 "Hg4 mi
10:00 PM39 °FLow clouds.8 mph81%30.12 "Hg4 mi
9:30 PM41 °FLow clouds.8 mph81%30.12 "Hg4 mi
9:00 PM41 °FLow clouds.9 mph81%30.09 "Hg4 mi
8:30 PM41 °FLow clouds.10 mph81%30.09 "Hg5 mi
8:00 PM41 °FOvercast.8 mph81%30.09 "HgN/A
7:30 PM41 °FOvercast.8 mph81%30.09 "HgN/A
7:00 PM43 °FOvercast.9 mph76%30.07 "HgN/A
6:30 PM43 °FOvercast.9 mph76%30.07 "HgN/A
6:00 PM45 °FMostly cloudy.8 mph71%30.07 "HgN/A
5:30 PM45 °FOvercast.9 mph71%30.07 "HgN/A
5:00 PM45 °FOvercast.10 mph76%30.04 "HgN/A
Weather by CustomWeather, © 2015

See weather overviewHow to use our weather pages